• en France
  • Liste des pays
  • À 7 jours
  • Température de l'eau
  • Carte satellitaire
  • Carte météo
  • Widgets météo
  • user-avatar
    Se connecter

    Météo par heure à Szombathely

    Ce jour, 21 Janvier, Dimanche

    Heure Température Précipitation Vent Pression Humidité
    00:00 -1°C° 0 mm 4 m/s 733 mmHg 82%
    01:00 -1°C° 0 mm 5 m/s 733 mmHg 80%
    02:00 -1°C° 0 mm 4 m/s 732 mmHg 82%
    03:00 0°C° 0 mm 3 m/s 731 mmHg 83%
    04:00 0°C° 0 mm 3 m/s 731 mmHg 84%
    05:00 +1°C° 0 mm 2 m/s 731 mmHg 85%
    06:00 +1°C° 0 mm 2 m/s 731 mmHg 85%
    07:00 +1°C° 0 mm 1 m/s 731 mmHg 85%
    08:00 0°C° 0 mm 3 m/s 732 mmHg 81%
    09:00 0°C° 0 mm 4 m/s 733 mmHg 78%
    10:00 +1°C° 0 mm 5 m/s 733 mmHg 74%
    11:00 +1°C° 0 mm 5 m/s 734 mmHg 73%
    12:00 +1°C° 0 mm 5 m/s 734 mmHg 72%
    13:00 +2°C° 0 mm 6 m/s 735 mmHg 72%
    14:00 +1°C° 0,1 mm 6 m/s 736 mmHg 73%
    15:00 +1°C° 0,1 mm 6 m/s 737 mmHg 74%
    16:00 +1°C° 0,1 mm 6 m/s 737 mmHg 76%
    17:00 -1°C° 0 mm 6 m/s 738 mmHg 77%
    18:00 -1°C° 0 mm 6 m/s 739 mmHg 78%
    19:00 -2°C° 0 mm 6 m/s 740 mmHg 80%
    20:00 -2°C° 0 mm 6 m/s 741 mmHg 78%
    21:00 -2°C° 0 mm 6 m/s 742 mmHg 77%
    22:00 -3°C° 0 mm 6 m/s 743 mmHg 76%
    23:00 -3°C° 0 mm 6 m/s 743 mmHg 77%

    Demain, 22 Janvier, Lundi

    Heure Température Précipitation Vent Pression Humidité
    00:00 -2°C° 0 mm 5 m/s 743 mmHg 77%
    01:00 -3°C° 0 mm 4 m/s 744 mmHg 78%
    02:00 -3°C° 0 mm 4 m/s 744 mmHg 79%
    03:00 -2°C° 0 mm 3 m/s 744 mmHg 79%
    04:00 -2°C° 0 mm 3 m/s 743 mmHg 79%
    05:00 -2°C° 0 mm 2 m/s 743 mmHg 79%
    06:00 -2°C° 0 mm 2 m/s 743 mmHg 78%
    07:00 0°C° 0 mm 1 m/s 743 mmHg 77%
    08:00 0°C° 0 mm 1 m/s 743 mmHg 74%
    09:00 +1°C° 0 mm 1 m/s 743 mmHg 71%
    10:00 +2°C° 0 mm 1 m/s 744 mmHg 68%
    11:00 +2°C° 0 mm 1 m/s 743 mmHg 65%
    12:00 +3°C° 0 mm 1 m/s 743 mmHg 62%
    13:00 +4°C° 0 mm 1 m/s 742 mmHg 59%
    14:00 +3°C° 0 mm 1 m/s 742 mmHg 62%
    15:00 +3°C° 0 mm 1 m/s 742 mmHg 65%
    16:00 +2°C° 0 mm 2 m/s 742 mmHg 68%
    17:00 +1°C° 0 mm 2 m/s 742 mmHg 70%
    18:00 +1°C° 0 mm 2 m/s 743 mmHg 71%
    19:00 -1°C° 0 mm 2 m/s 743 mmHg 73%
    20:00 -1°C° 0,1 mm 2 m/s 743 mmHg 74%
    21:00 -1°C° 0,1 mm 2 m/s 744 mmHg 75%
    22:00 +1°C° 0,1 mm 2 m/s 744 mmHg 76%
    23:00 +1°C° 0,1 mm 2 m/s 745 mmHg 78%

    Après-demain, 23 Janvier, Mardi

    Heure Température Précipitation Vent Pression Humidité
    00:00 +1°C° 0,1 mm 2 m/s 745 mmHg 80%
    01:00 +2°C° 0,1 mm 1 m/s 745 mmHg 82%
    02:00 +2°C° 0,1 mm 1 m/s 745 mmHg 83%
    03:00 +2°C° 0,1 mm 1 m/s 745 mmHg 84%
    04:00 +2°C° 0,1 mm 1 m/s 746 mmHg 85%
    05:00 +2°C° 0,1 mm 1 m/s 746 mmHg 86%
    06:00 +2°C° 0,1 mm 1 m/s 747 mmHg 87%
    07:00 +2°C° 0,1 mm 1 m/s 748 mmHg 88%
    08:00 +3°C° 0,1 mm 1 m/s 748 mmHg 85%
    09:00 +3°C° 0,1 mm 1 m/s 749 mmHg 83%
    10:00 +4°C° 0,1 mm 1 m/s 750 mmHg 81%
    11:00 +4°C° 0 mm 2 m/s 750 mmHg 78%
    12:00 +5°C° 0 mm 2 m/s 750 mmHg 76%
    13:00 +6°C° 0 mm 2 m/s 750 mmHg 73%
    14:00 +5°C° 0 mm 2 m/s 751 mmHg 77%
    15:00 +5°C° 0 mm 2 m/s 751 mmHg 80%
    16:00 +5°C° 0 mm 1 m/s 751 mmHg 84%
    17:00 +4°C° 0 mm 1 m/s 752 mmHg 86%
    18:00 +3°C° 0 mm 1 m/s 752 mmHg 89%
    19:00 +2°C° 0 mm 1 m/s 753 mmHg 92%
    20:00 +2°C° 0 mm 1 m/s 753 mmHg 92%
    21:00 +2°C° 0 mm 1 m/s 753 mmHg 92%
    22:00 +2°C° 0 mm 1 m/s 753 mmHg 93%
    23:00 +2°C° 0 mm 1 m/s 753 mmHg 93%

    24 Janvier, Mercredi

    Heure Température Précipitation Vent Pression Humidité
    00:00 +2°C° 0 mm 1 m/s 754 mmHg 93%
    01:00 +1°C° 0 mm 1 m/s 754 mmHg 93%
    02:00 -1°C° 0 mm 2 m/s 754 mmHg 93%
    03:00 -1°C° 0 mm 2 m/s 754 mmHg 93%
    04:00 -1°C° 0 mm 2 m/s 753 mmHg 93%
    05:00 -1°C° 0 mm 2 m/s 754 mmHg 93%
    06:00 -1°C° 0 mm 2 m/s 754 mmHg 93%
    07:00 -1°C° 0 mm 2 m/s 754 mmHg 93%
    08:00 +1°C° 0 mm 2 m/s 754 mmHg 89%
    09:00 +1°C° 0 mm 3 m/s 754 mmHg 85%
    10:00 +2°C° 0 mm 3 m/s 754 mmHg 82%
    11:00 +3°C° 0 mm 3 m/s 754 mmHg 79%
    12:00 +4°C° 0 mm 3 m/s 753 mmHg 76%
    13:00 +5°C° 0 mm 4 m/s 753 mmHg 73%
    14:00 +4°C° 0 mm 3 m/s 753 mmHg 76%
    15:00 +4°C° 0 mm 3 m/s 753 mmHg 79%
    16:00 +3°C° 0 mm 3 m/s 753 mmHg 82%
    17:00 +2°C° 0 mm 3 m/s 753 mmHg 84%
    18:00 +1°C° 0 mm 3 m/s 753 mmHg 87%
    19:00 0°C° 0 mm 3 m/s 753 mmHg 89%
    20:00 0°C° 0 mm 3 m/s 753 mmHg 89%
    21:00 0°C° 0 mm 3 m/s 752 mmHg 89%
    22:00 0°C° 0 mm 3 m/s 752 mmHg 89%
    23:00 0°C° 0 mm 3 m/s 752 mmHg 88%

    25 Janvier, Jeudi

    Heure Température Précipitation Vent Pression Humidité
    00:00 -1°C° 0 mm 3 m/s 752 mmHg 88%
    01:00 -1°C° 0 mm 3 m/s 751 mmHg 87%
    02:00 -1°C° 0 mm 3 m/s 751 mmHg 87%
    03:00 -1°C° 0 mm 3 m/s 750 mmHg 86%
    04:00 -1°C° 0 mm 3 m/s 750 mmHg 86%
    05:00 -1°C° 0 mm 3 m/s 750 mmHg 86%
    06:00 -1°C° 0 mm 3 m/s 750 mmHg 85%
    07:00 -1°C° 0 mm 3 m/s 749 mmHg 85%
    08:00 -1°C° 0 mm 3 m/s 749 mmHg 82%
    09:00 0°C° 0 mm 3 m/s 749 mmHg 78%
    10:00 +1°C° 0 mm 3 m/s 749 mmHg 75%
    11:00 +2°C° 0 mm 3 m/s 749 mmHg 73%
    12:00 +3°C° 0 mm 3 m/s 748 mmHg 70%
    13:00 +4°C° 0 mm 3 m/s 748 mmHg 68%
    14:00 +3°C° 0 mm 3 m/s 747 mmHg 71%
    15:00 +4°C° 0 mm 2 m/s 747 mmHg 74%
    16:00 +3°C° 0 mm 2 m/s 747 mmHg 78%
    17:00 +3°C° 0 mm 2 m/s 747 mmHg 80%
    18:00 +2°C° 0 mm 2 m/s 747 mmHg 82%
    19:00 +1°C° 0 mm 2 m/s 747 mmHg 85%
    20:00 +1°C° 0 mm 2 m/s 747 mmHg 85%
    21:00 +1°C° 0 mm 2 m/s 747 mmHg 84%
    22:00 -1°C° 0 mm 2 m/s 746 mmHg 84%
    23:00 -1°C° 0 mm 2 m/s 746 mmHg 84%

    26 Janvier, Vendredi

    Heure Température Précipitation Vent Pression Humidité
    00:00 +1°C° 0 mm 2 m/s 746 mmHg 83%
    01:00 +1°C° 0 mm 2 m/s 746 mmHg 83%
    02:00 +1°C° 0 mm 2 m/s 746 mmHg 82%
    03:00 +1°C° 0 mm 2 m/s 746 mmHg 82%
    04:00 0°C° 0 mm 3 m/s 745 mmHg 81%
    05:00 0°C° 0 mm 3 m/s 745 mmHg 81%
    06:00 0°C° 0 mm 3 m/s 745 mmHg 81%
    07:00 0°C° 0 mm 3 m/s 745 mmHg 80%
    08:00 0°C° 0 mm 3 m/s 746 mmHg 79%
    09:00 +1°C° 0 mm 3 m/s 746 mmHg 78%
    10:00 +1°C° 0 mm 3 m/s 746 mmHg 77%
    11:00 +2°C° 0 mm 3 m/s 746 mmHg 76%
    12:00 +2°C° 0 mm 3 m/s 745 mmHg 74%
    13:00 +3°C° 0 mm 3 m/s 745 mmHg 73%
    14:00 +3°C° 0 mm 3 m/s 745 mmHg 74%
    15:00 +4°C° 0 mm 2 m/s 746 mmHg 75%
    16:00 +4°C° 0 mm 2 m/s 746 mmHg 76%
    17:00 +3°C° 0 mm 2 m/s 746 mmHg 77%
    18:00 +3°C° 0 mm 2 m/s 746 mmHg 78%
    19:00 +2°C° 0 mm 2 m/s 747 mmHg 78%
    20:00 +2°C° 0 mm 2 m/s 747 mmHg 79%
    21:00 +2°C° 0 mm 2 m/s 747 mmHg 79%
    22:00 +3°C° 0 mm 1 m/s 748 mmHg 80%
    23:00 +3°C° 0 mm 1 m/s 748 mmHg 81%
    Voir plus